Tracking 30703 objects as of 13-Jun-2025
HD Live streaming from Space Station
objects crossing your sky now

INTELSAT 10 (PAS 10)

Track INTELSAT 10 (PAS 10) now!
INTELSAT 10 (PAS 10) is classified as:


NORAD ID: 26766
Int'l Code: 2001-019A
Perigee: 35,776.9 km
Apogee: 35,810.2 km
Inclination: 8.2 °
Period: 1,436.1 minutes
Semi major axis: 42164 km
RCS: 12.6191 m2 (large)
Launch date: May 15, 2001
Source: United States (US)
Launch site: TYURATAM MISSILE AND SPACE COMPLEX (TTMTR)

Direct-to-home video channels; 24 C-band, 24 Ku-band; Asia, Africa, Middle East, Europe.
Your satellite tracking list
Your tracking list is empty




NASA's NSSDC Master Catalog

Two Line Element Set (TLE):
1 26766U 01019A   25163.88839918  .00000002  00000-0  00000-0 0  9991
2 26766   8.1892  63.0245 0003956   3.5418 220.7941  1.00272435 41915
Source of the keplerian elements: AFSPC